1st Responders/1st Detectors/Storm Spotters Weather Summary for Powell County, KY

Forecast Maps


Reg. NEXRAD Animation


National Fire Danger: Day 1 & 2 Map

Current NWS Watch/Warnings

SPC Convective Day 1 Outlook


Day 2 Outlook

(Click images to enlarge|Page will refresh every 5 minutes)
UK Ag. Weather Center Desktop Severe Weather Service[HERE]
Powell County, KY Hazardous Weather Outlook Webcast
(9 AM to 9 PM Mon-Fri)
[Fast]
[Dial-up]


UKAWC 1st Detectors/1st Responders Precision Weather Forecast For POWELL County, Kentucky
(based on the NWS County Digital Forecast)

ISSUED AT 18:00 UTC ON FRIDAY JAN 17 2020
DAY FRIDAY
EDT 3HR 3P 4P 5P 6P 7P
MAX/MIN -- -- -- -- 40°
TEMP 38° 40° 40° 38° 38°
SKY COVER 84% 81% 84% 86% 89%
Clouds
DEW PT 18° 18° 18° 18° 18°
RH 44% 42% 42% 44% 45%
POP 12HR -- -- -- -- --
RAIN/SNOW (liq.equ) -- -- -- -- --
SNOWFALL -- -- -- -- --
WIND SPEED(MPH) 7 7 7 7 7
WIND Gust(MPH) 9 9 9 9 9
WIND DIR E E E E E
DEW -- -- -- -- --
HeatIndex 33 34 34 33 32
Snow Showers -- -- -- -- --
Rain Showers -- -- -- -- --
WIND CHILL 33° 35° 35° 33° 33°
SPRAY COND
DRY COND
LIVESTOCK COLDSTRESS



DAY SATURDAY SUNDAY MONDAY TUESDAY WEDNESDAY THURSDAY
EDT 6HR 8P 9P 10P 11P MIDN 1A 2A 3A 4A 5A 6A 7A 8A 9A 10A 11A NOON 1P 2P 3P 4P 5P 6P 7P 8P 9P 10P 11P MIDN 1A 2A 5A 8A 11A 2P 5P 8P 2A 8A 2P 8P 2A 8A 2P 8P 2A 8A 2P 8P 2A 8A 2P 8P
MAX/MIN -- -- -- -- -- -- -- -- -- -- -- -- 36° -- -- -- -- -- -- -- -- -- -- 54° -- -- -- -- -- -- -- -- 22° -- -- 31° -- -- 16° 27° -- -- 18° 34° -- -- 20° 43° -- -- 27° 52° --
TEMP 36° 36° 36° 36° 36° 38° 38° 40° 40° 41° 41° 43° 43° 43° 45° 45° 47° 47° 49° 50° 52° 54° 52° 49° 47° 45° 41° 40° 36° 34° 31° 27° 23° 23° 29° 29° 23° 18° 16° 25° 22° 20° 18° 31° 27° 22° 22° 40° 34° 29° 29° 49° 38°
SKY COVER 91% 93% 94% 94% 94% 94% 94% 96% 98% 100% 100% 98% 97% 98% 99% 100% 100% 99% 98% 97% 97% 96% 91% 86% 87% 81% 76% 71% 67% 64% 62% 67% 62% 58% 32% 34% 23% 25% 51% 52% 41% 29% 21% 18% 11% 14% 20% 37% 59% 71% 71% 58% 72%
Clouds
DEW PT 18° 18° 18° 20° 20° 20° 22° 22° 23° 25° 25° 27° 29° 31° 34° 38° 40° 41° 43° 43° 43° 43° 43° 43° 43° 38° 34° 31° 29° 25° 23° 18° 14° 14° 13° 11° 11° 11° 13° 11° 13° 16° 16° 16° 18° 25° 25°
RH 47% 49% 49% 52% 52% 49% 49% 50% 50% 50% 52% 55% 60% 62% 67% 73% 76% 79% 80% 74% 68% 65% 71% 80% 85% 79% 76% 73% 72% 69% 71% 65% 68% 68% 48% 44% 52% 59% 63% 45% 53% 62% 73% 42% 55% 62% 67% 36% 47% 57% 65% 37% 59%
POP 12HR 8% -- -- -- -- -- -- -- -- -- -- -- 56% -- -- -- -- -- -- -- -- -- -- -- 87% -- -- -- -- -- -- -- 17% -- -- -- 9% -- 4% -- 1% -- 2% -- 2% -- 0% -- 1% -- 2% -- 4%
RAIN/SNOW (liq.equ) 0.00in -- -- -- -- -- 0.00in -- -- -- -- -- 0.03in -- -- -- -- -- 0.23in -- -- -- -- -- 0.09in -- -- -- -- -- 0.01in -- 0.00in -- 0.00in -- 0.00in 0.00in 0.00in -- -- -- -- -- -- -- -- -- -- -- -- -- --
SNOWFALL 0in -- -- -- -- -- 0in -- -- -- -- -- 0in -- -- -- -- -- 0in -- -- -- -- -- 0in -- -- -- -- -- 0in -- 0in -- 0in -- 0in 0in 0in -- -- -- -- -- -- -- -- -- -- -- -- -- --
WIND SPEED(MPH) 7 7 7 7 7 7 7 7 7 8 9 9 10 14 15 16 16 16 16 16 16 16 15 15 14 9 10 14 10 9 13 10 8 8 9 7 6 2 2 2 1 1 0 1 0 0 0 0 0 0 0 1 0
WIND DIR E E E E E SE SE SE S S S S S S S S S SW SW SW SW SW SW W W W W W W W W W W W W W NW NW NW NW NW N N N N N N S E S S S E
HeatIndex 30 29 30 30 31 32 34 34 35 36 36 37 36 37 38 45 47 47 49 50 52 54 52 49 47 39 35 32 29 27 22 18 14 14 21 22 16 13 10 21 22 20 18 31 27 22 22 40 34 29 29 49 38
Snow Showers -- -- -- -- -- -- -- -- -- -- -- -- -- -- -- -- -- -- -- -- -- -- -- -- -- -- -- -- -- -- -- Chance Chance -- -- -- -- -- -- -- -- -- -- -- -- -- -- -- -- -- -- -- --
Rain Showers -- -- -- -- -- -- -- Slight Chance Chance Chance Chance Likely Likely Likely Definite Definite Definite Definite Definite Definite Likely Likely Chance Chance Slight Chance -- -- -- -- -- -- -- -- -- -- -- -- -- -- -- -- -- -- -- -- -- -- -- -- -- -- -- --
WIND CHILL 30° 30° 30° 30° 30° 33° 33° 35° 35° 36° 35° 38° 37° 36° 38° 38° -- -- -- -- -- -- -- -- -- 40° 35° 32° 29° 27° 21° 18° 14° 14° 21° 22° 16° -- -- -- -- -- -- -- -- -- -- -- -- -- -- -- --
SPRAY COND
DRY COND
LIVESTOCK COLDSTRESS

Click on individual weather variable above in left-hand column (ie., TEMP, RH, QPF 12HR) to view state forecast maps






NWS 48 Hr. Forecast Maps,

Regional Hourly Observations For POWELL County, Kentucky
Issued at 200 PM EST FRI JAN 17 2020
NORTHEAST KENTUCKY
  
CITY           SKY/WX    TMP DP  RH WIND       PRES   REMARKS
LEXINGTON      FAIR      36  17  46 E9        30.60F WCI  29          
COVINGTON      CLOUDY    32  16  51 SE14      30.62F WCI  22          
FRANKFORT      FAIR      34  19  54 E10       30.59F WCI  26          


Current NOWCAST not available:
Nowcasts are not issued routinely during fair weather. Only when
precipitation or other significant weather is occuring in this county will these
forecasts be issued. Currently, there is no short term forecast in effect.


Fire Weather Forecast For POWELL County, KY
Provided by the National Weather Service:

Issued at: Fri Jan 17 14:05:01 EST 2020

522 AM EST Fri Jan 17 2020

                      Today        Tonight      Sat          

Cloud Cover           Pcldy        Cloudy       Cloudy       
Chance precip (%)     0            50           90           
Precip type           None         rain         rain         
Temp (24H TREND)      38-39 (-7)   28-37 (+15)  52-53        
Rh % (24H TREND)      34-37 (+1)   50-73 (-5)   45-54        
20ftwnd-AM(mph)       NE 4-8                    S 11-15 G36  
20ftwnd-PM(mph)       E 4-8        E 3-7        SW 12-16 G37 
Precip duration                    1            5            
Precip begin                                    Continuing   
Precip end                                      Continuing   
Precip amount         0.00         0.02         0.32         
LAL                   1            1            1            
Haines Index (MID)    4                         2            
Mixing hgt(ft-AGL)    2200                      500          
Transport wnd (mph)   E 13                      S 18         
Vent rate (kt-ft)     24596                     9047         
ADI Early             34 Fair      10 Poor      23 Fair      
ADI Late              34 Fair      19 Gen Poor  18 Gen Poor  
Max LVORI Early       3            2            3            
Max LVORI Late        2            2            3            

REMARKS...RANGES OF MIN T EXCEEDING 8 DEGREES & RANGES OF MAX RH        
EXCEEDING 10% INDICATE THE LIKELIHOOD OF THERMAL BELTS. ADI IS        
ATMOSPHERIC DISPERSION INDEX BY LAVDAS. DISPERSION INDEX IS        
MAGNITUDE OF VENT RATE DIVIDED BY 1000.


SPC's Fire Weather Web Tool (Excellent!), SPC's Fire Weather Outlooks, NWS Fire Weather WEB, Fire Danger Class Map,
Keetch-Byram Drought Index, ROMAN Web, Haines Index ,
WFAS's 10-hr Dead Fuel Moist., WFAS's 100-hr Dead Fuel Moist., Probablity of Ignition, Visual blackness Map, Palmer Drought Index, HPC's Rainfall Forecast Maps


Hazardous Weather Outlook For POWELL County, Kentucky
436 AM EST Fri Jan 17 2020

 DAY ONE  Today and Tonight.

No hazardous weather is expected at this time.

 DAYS TWO THROUGH SEVEN  Saturday through Thursday.

Wind gusts of 30 to 40 mph will be possible at times from late 
Saturday morning into Saturday evening.

 SPOTTER INFORMATION STATEMENT  

Spotter activation is not anticipated.

Latest POWELL County, Kentucky Watches, Warnings and Advisories.
Additional Drought Info.: UKAWC Drought Page, Kentucky Drought Watch


7-Day Forecast For POWELL County, KY

THIS AFTERNOON
Cloudy. Highs around 40. Light winds.

TONIGHT
Cloudy. A slight chance of rain showers late. A chance of rain showers near dawn. Lows in the mid 30s. Light winds becoming south around 10 mph late. Chance of rain 50 percent.

SATURDAY
Showers. Highs in the mid 50s. Southwest winds 10 to 15 mph with gusts up to 30 mph. Chance of rain 90 percent.

SATURDAY NIGHT
Mostly cloudy. A slight chance of rain showers in the evening, then flurries possible late. Lows in the lower 20s. West winds around 10 mph with gusts to around 25 mph. Chance of rain 20 percent.

SUNDAY
Cooler. Mostly sunny. Flurries possible in the morning. Highs in the lower 30s. West winds around 10 mph.

SUNDAY NIGHT
Partly cloudy. Lows 15 to 20.

MARTIN LUTHER KING JR DAY
Partly sunny. Highs in the upper 20s.

MONDAY NIGHT
Partly cloudy. Lows around 20.

TUESDAY
Sunny. Highs in the mid 30s.

TUESDAY NIGHT
Mostly clear. Lows in the lower 20s.

WEDNESDAY
Mostly sunny. Highs in the mid 40s.

WEDNESDAY NIGHT
Mostly cloudy. Lows in the upper 20s.

THURSDAY
Partly sunny. Highs in the lower 50s.

Ag Weather Center, Department of Biosystems & Agricultural Engineering, University of Kentucky